Location: Bismarck
(46.7731°N, 100.8200°W)
Time: 09:54:01
(UTC-05:00)

Daily predictions for brighter satellites

Satellite Brightness Start Highest point End
(mag) Time Altitude Azimuth Time Altitude Azimuth Time Altitude Azimuth
BREEZE-M DEB (TANK) 4.3 20:56:14 10° SW 21:00:41 52° SE 21:17:19 10° ENE
Cosmos 1805 Rocket 3.7 21:05:50 10° NNW 21:10:13 80° W 21:14:32 10° S
Cosmos 2219 Rocket 2.6 21:06:00 10° S 21:11:17 42° ESE 21:16:33 10° NE
SJ 16-02 4.4 21:08:03 10° WSW 21:11:20 20° NW 21:14:38 10° N
Cosmos 2237 Rocket 3.3 21:07:57 10° SSE 21:12:05 22° E 21:16:15 10° NE
H-2A R/B 3.7 21:08:57 10° E 21:12:06 17° ENE 21:15:14 10° NNE
Cosmos 2322 Rocket 4.4 21:08:26 10° WSW 21:13:29 32° NW 21:18:33 10° NNE
NOSS 7 (H) 4.3 21:11:42 10° SW 21:15:09 82° SE 21:18:29 10° NE
Genesis I 3.7 21:12:19 10° NNW 21:16:20 52° NE 21:20:19 10° SE
Cosmos 2154 Rocket 4.0 21:11:16 10° S 21:17:27 67° E 21:23:38 10° NNE
Cosmos 2278 Rocket 2.8 21:12:33 10° NNW 21:17:59 44° NE 21:23:23 10° SE
YAOGAN 6 2.6 21:14:53 10° SSE 21:18:28 74° ENE 21:22:08 10° N
Cosmos 1328 Rocket 4.1 21:15:13 10° SSE 21:19:16 37° E 21:23:22 10° NNE
Cosmos 2184 Rocket 4.4 21:14:55 10° SSW 21:21:03 70° W 21:27:14 10° N
Cosmos 1437 4.0 21:18:21 10° SSW 21:21:26 46° WNW 21:24:33 10° N
Resurs 01 Rocket 1.6 21:18:25 10° SSE 21:22:50 70° ENE 21:27:16 10° N
Cosmos 2251 Rocket 3.8 21:17:39 10° NNW 21:23:02 74° WSW 21:28:22 10° SSE
ATLAS 5 CENTAUR R/B 4.5 21:20:11 10° NNW 21:23:16 15° NNE 21:26:33 10° NE
NOAA 11 4.4 21:21:59 10° SE 21:27:20 55° ENE 21:32:42 10° N
Cosmos 44 Rocket 3.6 21:23:13 10° SW 21:27:59 73° NW 21:32:56 10° NNE
Cosmos 1470 Rocket 4.0 21:23:49 10° N 21:28:02 43° ENE 21:32:14 10° SSE
Envisat 3.8 21:24:52 10° S 21:29:49 53° W 21:34:48 10° NNW
ATLAS CENTAUR R/B 1.8 21:29:27 10° S 21:32:44 31° ESE 21:36:10 10° NE
Cosmos 1340 2.9 21:29:35 10° SSW 21:33:22 73° WNW 21:37:11 10° N
Cosmos 2341 Rocket 4.0 21:33:02 10° S 21:39:19 67° E 21:45:36 10° NNE
Cosmos 2098 Rocket 4.2 21:39:28 12° SE 21:42:47 24° E 21:45:56 10° NE
Cosmos 1825 2.7 21:40:13 10° N 21:43:49 39° ENE 21:46:31 16° SE
Cosmos 962 Rocket 4.4 21:38:12 10° S 21:44:18 75° E 21:50:29 10° NNE
Cosmos 2218 Rocket 4.4 21:39:50 10° SSE 21:45:44 42° E 21:51:42 10° NNE
OE (NEXTSAT) 4.4 21:46:47 10° WSW 21:50:18 60° SSE 21:52:59 16° E
USA 234 4.4 21:45:00 10° ENE 21:50:55 38° N 21:56:50 10° WNW
Thor Agena Rocket 4.0 21:47:06 10° N 21:52:17 66° WNW 21:57:31 10° SSW
NOSS 0 Rocket 4.0 21:46:43 10° S 21:52:42 55° ESE 21:58:44 10° NE
USA 186 3.6 21:51:16 10° SSW 21:53:03 20° W 21:54:52 10° NW
Cosmos 1295 Rocket 4.5 21:47:31 10° S 21:53:52 82° E 22:00:13 10° N
BREEZE-M DEB (TANK) 3.2 21:49:56 10° WNW 21:54:15 42° SW 21:55:37 21° SSE
Cosmos 1939 Rocket 4.0 21:52:48 10° S 21:56:29 42° W 22:00:14 10° NNW
Cosmos 1933 Rocket 3.5 21:52:23 10° N 21:56:48 71° E 22:00:35 13° SSE
Cosmos 2366 rocket 4.3 21:52:39 10° SSE 21:58:32 47° E 22:04:32 10° NNE
Resurs 1-3 4.5 21:54:24 10° S 21:58:38 49° W 22:02:55 10° NNW
SL-16 R/B 3.3 21:59:33 19° SE 22:01:30 22° E 22:05:45 10° NE
Meteor 2-3 Rocket 4.1 21:56:55 10° NNW 22:02:29 66° W 22:08:03 10° S
BREEZE-M DEB (TANK) 2.0 21:59:52 10° WNW 22:03:35 72° SSW 22:04:23 35° SE
Cosmos 1869 3.7 22:02:49 18° SSE 22:05:32 44° E 22:09:23 10° NNE
Terra 3.8 22:05:06 12° E 22:06:54 15° ENE 22:09:32 10° NNE
Cosmos 1151 Rocket 2.9 22:03:07 10° S 22:07:21 78° E 22:11:39 10° NNE
SL-8 Rocket 4.0 22:01:53 10° S 22:08:09 73° E 22:14:25 10° NNE
Cosmos 1943 Rocket 4.4 22:07:33 10° NNE 22:09:13 11° NNE 22:10:52 10° NE
ARGOS 3.2 22:07:10 18° SSE 22:11:04 65° ENE 22:16:24 10° N
NOSS 2-1 (C) 4.5 22:07:57 10° WSW 22:11:30 45° NW 22:15:38 10° NNE
Spot 2 Rocket 4.2 22:07:46 10° S 22:12:46 54° W 22:17:46 10° NNW
MetOp-B 4.2 22:12:10 21° SSE 22:15:45 63° ENE 22:21:03 10° N
ATLAS 2AS CENTAUR R/B 3.4 22:08:54 10° NW 22:16:39 59° WSW 22:22:42 15° SSE
Lacrosse 5 3.6 22:12:47 10° NW 22:17:07 27° N 22:21:26 10° ENE
Cosmos 1869 Rocket 4.1 22:14:48 10° N 22:18:57 39° ENE 22:20:24 30° ESE
Helios 1B rocket 4.1 22:17:27 10° NE 22:19:46 18° E 22:19:46 18° E
SPOT 5 3.6 22:19:19 26° ESE 22:20:57 33° ENE 22:24:58 10° N
Cosmos 1980 3.6 22:22:15 10° SSW 22:27:56 87° ESE 22:33:41 10° NNE
Cosmos 2297 3.9 22:23:43 10° NNW 22:29:21 61° ENE 22:32:07 30° SE
Meteor 2-10 Rocket 3.7 22:27:11 15° S 22:31:54 66° E 22:37:40 10° NNE
Cosmos 1408 3.6 22:30:10 10° NNW 22:33:39 43° W 22:36:08 17° SSW
Cosmos 1455 4.3 22:31:10 10° SW 22:34:31 28° WNW 22:37:56 10° NNW
Cosmos 1441 Rocket 3.7 22:34:51 38° E 22:34:51 38° E 22:38:11 10° NNE
Cosmos 2333 Rocket 2.9 22:31:13 10° SW 22:36:46 55° WNW 22:42:20 10° NNE
Cosmos 1515 Rocket 4.5 22:32:38 10° SSW 22:36:59 50° WNW 22:41:21 10° N
Helios 1A 3.2 22:35:50 40° SE 22:37:00 55° ENE 22:41:08 10° N
Cosmos 2228 Rocket 3.9 22:32:51 10° SSW 22:37:07 50° WNW 22:41:25 10° N
Cosmos 2369 Rocket 3.9 22:33:17 10° N 22:37:30 21° NE 22:40:15 15° ENE
Cosmos 864 Rocket 4.4 22:33:58 10° S 22:40:06 89° E 22:46:17 10° N
USA 81 4.0 22:35:28 10° N 22:40:46 76° E 22:43:20 31° SSE
SPOT 1/Viking Rocket 3.8 22:40:48 35° SE 22:42:42 53° ENE 22:47:47 10° N
NOSS 3-4 (A) 3.8 22:40:11 10° NW 22:47:11 87° NE 22:51:01 32° SE
NOSS 3-4 (C) 3.8 22:40:17 10° NW 22:47:18 86° NE 22:51:06 32° SE
USA 245 3.4 22:48:38 39° N 22:48:38 39° N 22:50:15 10° N
Cosmos 1862 3.2 22:44:56 10° N 22:49:01 77° E 22:49:46 56° SSE
SL-8 R/B 3.7 22:44:39 10° SW 22:49:21 59° SSE 22:50:54 39° E
Cosmos 407 Rocket 3.4 22:44:12 10° NNW 22:49:22 85° WSW 22:51:21 38° SSE
H-2A R/B 2.0 22:48:28 30° S 22:50:59 75° WSW 22:55:58 10° NNW
ERS-1 Rocket 3.0 22:50:13 33° S 22:52:31 79° WSW 22:57:35 10° NNW
Cosmos 614 Rocket 4.2 22:48:12 10° NNW 22:53:23 58° ENE 22:54:50 43° ESE
Cosmos 2219 Rocket 3.8 22:50:06 10° WSW 22:55:18 36° NW 23:00:30 10° NNE
Cosmos 2237 Rocket 2.6 22:50:04 10° SW 22:55:38 64° WNW 23:01:16 10° NNE
SL-19 R/B 4.3 22:54:32 40° SE 22:56:30 64° ENE 23:02:02 10° NNW
USA 267 3.4 22:51:47 10° ENE 22:58:01 45° SE 23:04:14 10° SSW
Cosmos 1437 Rocket 4.0 22:54:36 10° N 22:57:36 29° ENE 22:57:36 29° ENE
CZ-2C R/B 4.5 22:56:02 10° NE 22:58:10 15° ENE 22:58:10 15° ENE
Cosmos 1371 Rocket 4.2 22:54:22 10° SSW 22:59:42 74° WNW 23:05:05 10° NNE
Resurs 01 Rocket 4.4 22:57:37 10° WSW 22:59:48 13° W 23:01:59 10° WNW
Cosmos 2278 Rocket 3.5 22:56:54 10° NW 23:01:56 33° WSW 23:05:27 17° SSW
Cosmos 405 Rocket 2.5 23:03:13 78° ESE 23:03:14 78° E 23:07:10 10° NNE
SL-08 RB Rocket 4.3 23:02:53 32° SSW 23:04:40 51° W 23:09:03 10° NNW
IGS 5A 3.9 23:04:57 45° ENE 23:04:58 45° ENE 23:08:58 10° N
Cosmos 676 Rocket 3.9 23:03:03 10° NNW 23:08:21 88° ENE 23:09:38 53° SSE
ATLAS 5 CENTAUR R/B 3.6 23:04:36 10° NNW 23:09:41 32° NE 23:12:40 22° E
ATLAS CENTAUR R/B 3.2 23:08:24 10° WSW 23:11:42 29° NW 23:15:10 10° NNE
Cosmos 1000 Rocket 4.4 23:05:46 10° N 23:11:59 77° E 23:14:03 45° SSE
Cosmos 1821 Rocket 4.0 23:17:40 45° SSE 23:19:38 69° E 23:25:54 10° NNE
Cosmos 2056 Rocket 4.0 23:15:59 10° SW 23:21:21 62° WNW 23:26:43 10° NNE
Cosmos 1452 Rocket 3.5 23:22:16 58° ESE 23:22:16 58° ESE 23:27:26 10° NNE
Cosmos 1023 Rocket 4.4 23:19:14 10° NNW 23:24:25 80° WSW 23:25:13 63° S
Landsat 7 3.7 23:25:42 68° S 23:26:16 82° WSW 23:31:04 10° NNW
Cosmos 1933 3.6 23:33:06 69° NW 23:33:06 69° NW 23:36:53 10° N
USA 234 3.5 23:30:25 34° E 23:33:19 64° NNE 23:39:47 10° NW
Cosmos 2123 Rocket 4.0 23:27:12 10° N 23:33:30 67° ENE 23:34:41 55° SE
Spot 1 4.5 23:33:54 61° SSW 23:34:31 68° WSW 23:39:17 10° NNW
Cosmos 1850 Rocket 4.0 23:33:37 10° NNW 23:38:47 66° ENE 23:39:00 65° E
Cosmos 1633 4.1 23:38:45 10° N 23:40:51 31° NNE 23:40:51 31° NNE
Terra 1.7 23:43:58 81° WSW 23:44:00 81° WSW 23:48:48 10° NNW
GEOS 3 Rocket 3.9 23:39:01 10° NE 23:44:22 67° NW 23:49:37 10° SW
SL-16 R/B 2.6 23:41:17 21° SW 23:45:07 63° WNW 23:50:46 10° NNE
Cosmos 1741 Rocket 3.9 23:40:38 10° NNW 23:45:59 73° ENE 23:46:10 72° E
Cosmos 1140 Rocket 3.8 23:41:15 10° NNW 23:46:16 53° WSW 23:46:47 50° SW
Spot 4 4.5 23:47:11 45° NE 23:47:11 45° NE 23:51:23 10° N
Meteor 1-4 Rocket 4.3 23:44:03 10° N 23:45:56 28° N 23:45:56 28° N
Cosmos 1535 Rocket 4.5 23:49:12 55° SSW 23:50:45 86° W 23:57:12 10° N
SeaSat 1 4.2 23:52:13 21° ENE 23:53:13 22° NE 23:56:57 10° N
Cosmos 1943 Rocket 2.7 23:49:10 10° NNW 23:54:28 45° NE 23:54:52 44° ENE
CZ-2C R/B 2.9 23:55:28 73° NNE 23:55:28 73° NNE 23:59:55 10° NNW
Helios 1B rocket 3.4 23:51:59 10° N 23:55:55 42° WNW 23:56:07 42° W
